Weather History for Burlington, WA

Change the Weather History Date:

Sunday, October 13, 2013

  Actual Average Record
Temperature  
Mean Temperature 47 °F -  
Max Temperature 55 °F 59 °F 84 °F (2014)
Min Temperature 39 °F 41 °F 30 °F (1969)
Degree Days  
Heating Degree Days 18    
Moisture  
Dew Point 46 °F    
Average Humidity 94    
Maximum Humidity 100    
Minimum Humidity 72    
Precipitation  
Precipitation 0.00 in - - ()
Sea Level Pressure  
Sea Level Pressure 30.32 in    
Wind  
Wind Speed 2 mph (NNW)    
Max Wind Speed 10 mph    
Max Gust Speed -    
Visibility 8 miles    
Events      
Averages and records for this station are not official NWS values.
T = Trace of Precipitation, MM = Missing Value Source: NWS Daily Summary

Daily Weather History Graph

Daily Weather History Graph

Search for Another Location

Airport:

Trip Planner

Search our weather history database for the weather conditions in past years. The results will help you decide how hot, cold, wet, or windy it might be!

Date:

Astronomy

Oct. 13, 2013 Rise Set
Actual Time 7:27 AM PDT 6:23 PM PDT
Civil Twilight 6:55 AM PDT 6:55 PM PDT
Nautical Twilight 6:19 AM PDT 7:31 PM PDT
Astronomical Twilight 5:42 AM PDT 8:07 PM PDT
Moon 3:41 PM PDT (10/13) 1:17 AM PDT (10/13)
Length of Visible Light 11h 59m
Length of Day
10h 56m
Waxing Gibbous, 70% of the Moon is Illuminated
Oct 13
Waxing Gibbous
Oct 18
Full
Oct 26
Last Quarter
Nov 3
New
Nov 9
First Quarter

Hourly Weather History & Observations

Time (PDT) Temp. Windchill Dew Point Humidity Pressure Visibility Wind Dir Wind Speed Gust Speed Precip Events Conditions
12:15 AM 42.8 °F - 42.8 °F 100% 30.24 in 1.2 mi Calm Calm - 0.00 in   Clear
12:35 AM 39.2 °F - 39.2 °F 100% 30.24 in 0.2 mi Calm Calm - 0.00 in   Overcast
12:55 AM 42.8 °F - 42.8 °F 100% 30.24 in 0.2 mi Calm Calm - 0.00 in   Overcast
1:15 AM 42.8 °F 40.1 °F 42.8 °F 100% 30.25 in 0.5 mi NNW 4.6 mph - 0.00 in   Overcast
1:35 AM 44.6 °F 43.1 °F 44.6 °F 100% 30.25 in 3.0 mi North 3.5 mph - 0.00 in   Mostly Cloudy
1:55 AM 42.8 °F 41.1 °F 42.8 °F 100% 30.25 in 2.0 mi NE 3.5 mph - 0.00 in   Overcast
2:15 AM 44.6 °F 43.1 °F 44.6 °F 100% 30.26 in 7.0 mi NE 3.5 mph - 0.00 in   Mostly Cloudy
2:35 AM 44.6 °F - 44.6 °F 100% 30.26 in 5.0 mi Calm Calm - 0.00 in   Overcast
2:55 AM 44.6 °F 43.1 °F 44.6 °F 100% 30.27 in 10.0 mi NNE 3.5 mph - 0.00 in   Mostly Cloudy
3:15 AM 44.6 °F 43.1 °F 44.6 °F 100% 30.26 in 8.0 mi ENE 3.5 mph - 0.00 in   Overcast
3:35 AM 44.6 °F - 44.6 °F 100% 30.27 in 5.0 mi Calm Calm - 0.00 in   Overcast
3:55 AM 44.6 °F - 44.6 °F 100% 30.27 in 5.0 mi Calm Calm - 0.00 in   Overcast
4:15 AM 44.6 °F - 44.6 °F 100% 30.27 in 5.0 mi Calm Calm - 0.00 in   Overcast
4:35 AM 44.6 °F 43.1 °F 44.6 °F 100% 30.27 in 4.0 mi ENE 3.5 mph - 0.00 in   Overcast
4:55 AM 44.6 °F - 44.6 °F 100% 30.28 in 2.5 mi Calm Calm - 0.00 in   Overcast
5:15 AM 42.8 °F - 42.8 °F 100% 30.28 in 10.0 mi Calm Calm - 0.00 in   Overcast
5:35 AM 42.8 °F - 42.8 °F 100% 30.28 in 10.0 mi Calm Calm - 0.00 in   Mostly Cloudy
5:55 AM 42.8 °F - 42.8 °F 100% 30.29 in 10.0 mi Calm Calm - 0.00 in   Scattered Clouds
6:15 AM 41.0 °F - 41.0 °F 100% 30.29 in 10.0 mi Calm Calm - 0.00 in   Partly Cloudy
6:35 AM 41.0 °F - 41.0 °F 100% 30.29 in 10.0 mi Calm Calm - 0.00 in   Mostly Cloudy
6:55 AM 41.0 °F 39.0 °F 41.0 °F 100% 30.29 in 10.0 mi NE 3.5 mph - 0.00 in   Overcast
7:15 AM 42.8 °F 41.1 °F 42.8 °F 100% 30.30 in 10.0 mi NNE 3.5 mph - 0.00 in   Overcast
7:35 AM 42.8 °F 41.1 °F 42.8 °F 100% 30.31 in 10.0 mi NE 3.5 mph - 0.00 in   Overcast
7:55 AM 42.8 °F - 42.8 °F 100% 30.31 in 10.0 mi Calm Calm - 0.00 in   Overcast
8:15 AM 44.6 °F 43.1 °F 44.6 °F 100% 30.32 in 10.0 mi NNE 3.5 mph - 0.00 in   Overcast
8:35 AM 44.6 °F - 44.6 °F 100% 30.32 in 10.0 mi Calm Calm - 0.00 in   Overcast
8:55 AM 44.6 °F - 44.6 °F 100% 30.33 in 10.0 mi Calm Calm - 0.00 in   Overcast
9:15 AM 44.6 °F 43.1 °F 44.6 °F 100% 30.33 in 5.0 mi ENE 3.5 mph - 0.00 in   Overcast
9:35 AM 44.6 °F - 44.6 °F 100% 30.33 in 5.0 mi Calm Calm - 0.00 in   Overcast
9:55 AM 48.2 °F - 48.2 °F 100% 30.34 in 8.0 mi ENE 4.6 mph - 0.00 in   Overcast
10:15 AM 48.2 °F - 48.2 °F 100% 30.34 in 9.0 mi ENE 4.6 mph - 0.00 in   Overcast
10:35 AM 48.2 °F - 48.2 °F 100% 30.34 in 8.0 mi Calm Calm - 0.00 in   Partly Cloudy
10:55 AM 48.2 °F - 48.2 °F 100% 30.34 in 7.0 mi East 3.5 mph - 0.00 in   Clear
11:15 AM 51.8 °F - 48.2 °F 88% 30.34 in 7.0 mi Calm Calm - 0.00 in   Clear
11:35 AM 51.8 °F - 48.2 °F 88% 30.33 in 7.0 mi Calm Calm - 0.00 in   Clear
11:55 AM 51.8 °F - 51.8 °F 100% 30.34 in 8.0 mi SSW 5.8 mph - 0.00 in   Partly Cloudy
12:15 PM 53.6 °F - 51.8 °F 94% 30.34 in 8.0 mi WSW 4.6 mph - 0.00 in   Mostly Cloudy
12:35 PM 53.6 °F - 51.8 °F 94% 30.33 in 8.0 mi South 3.5 mph - 0.00 in   Mostly Cloudy
12:55 PM 53.6 °F - 48.2 °F 82% 30.33 in 8.0 mi WNW 3.5 mph - 0.00 in   Scattered Clouds
1:15 PM 55.4 °F - 48.2 °F 77% 30.33 in 7.0 mi NW 8.1 mph - 0.00 in   Clear
1:35 PM 55.4 °F - 48.2 °F 77% 30.33 in 8.0 mi West 5.8 mph - 0.00 in   Clear
1:55 PM 55.4 °F - 48.2 °F 77% 30.32 in 10.0 mi West 4.6 mph - 0.00 in   Clear
2:15 PM 55.4 °F - 48.2 °F 77% 30.32 in 10.0 mi NW 8.1 mph - 0.00 in   Clear
2:35 PM 55.4 °F - 46.4 °F 72% 30.32 in 10.0 mi WNW 5.8 mph - 0.00 in   Clear
2:55 PM 55.4 °F - 48.2 °F 77% 30.32 in 5.0 mi WNW 5.8 mph - 0.00 in   Clear
3:15 PM 55.4 °F - 48.2 °F 77% 30.32 in 6.0 mi NW 6.9 mph - 0.00 in   Clear
3:35 PM 55.4 °F - 46.4 °F 72% 30.32 in 8.0 mi NNW 5.8 mph - 0.00 in   Clear
3:55 PM 55.4 °F - 46.4 °F 72% 30.32 in 8.0 mi NW 5.8 mph - 0.00 in   Clear
4:15 PM 55.4 °F - 48.2 °F 77% 30.32 in 7.0 mi WNW 6.9 mph - 0.00 in   Clear
4:35 PM 55.4 °F - 46.4 °F 72% 30.32 in 9.0 mi WNW 6.9 mph - 0.00 in   Clear
4:55 PM 55.4 °F - 46.4 °F 72% 30.32 in 10.0 mi WNW 6.9 mph - 0.00 in   Clear
5:15 PM 53.6 °F - 46.4 °F 77% 30.32 in 8.0 mi NW 10.4 mph - 0.00 in   Clear
5:35 PM 51.8 °F - 48.2 °F 88% 30.33 in 9.0 mi NW 6.9 mph - 0.00 in   Clear
5:55 PM 51.8 °F - 48.2 °F 88% 30.33 in 9.0 mi NW 6.9 mph - 0.00 in   Clear
6:15 PM 50.0 °F - 48.2 °F 94% 30.33 in 10.0 mi NW 5.8 mph - 0.00 in   Clear
6:35 PM 48.2 °F - 48.2 °F 100% 30.33 in 10.0 mi NW 6.9 mph - 0.00 in   Clear
6:55 PM 48.2 °F - 48.2 °F 100% 30.33 in 10.0 mi WNW 8.1 mph - 0.00 in   Clear
7:15 PM 48.2 °F - 48.2 °F 100% 30.34 in 10.0 mi NW 6.9 mph - 0.00 in   Clear
7:35 PM 48.2 °F - 48.2 °F 100% 30.34 in 10.0 mi WNW 4.6 mph - 0.00 in   Clear
7:55 PM 48.2 °F - 48.2 °F 100% 30.34 in 10.0 mi WNW 4.6 mph - 0.00 in   Clear
8:15 PM 46.4 °F 45.2 °F 46.4 °F 100% 30.35 in 10.0 mi East 3.5 mph - 0.00 in   Clear
8:35 PM 46.4 °F - 46.4 °F 100% 30.35 in 10.0 mi Calm Calm - 0.00 in   Clear
8:55 PM 44.6 °F 43.1 °F 44.6 °F 100% 30.36 in 10.0 mi NW 3.5 mph - 0.00 in   Clear
9:15 PM 44.6 °F 42.2 °F 44.6 °F 100% 30.36 in 10.0 mi NNW 4.6 mph - 0.00 in   Clear
9:35 PM 42.8 °F 40.1 °F 42.8 °F 100% 30.36 in 10.0 mi NW 4.6 mph - 0.00 in   Clear
9:55 PM 41.0 °F - 41.0 °F 100% 30.37 in 10.0 mi Calm Calm - 0.00 in   Clear
10:15 PM 42.8 °F - 42.8 °F 100% 30.38 in 10.0 mi Calm Calm - 0.00 in   Clear
10:35 PM 44.6 °F - 44.6 °F 100% 30.38 in 10.0 mi Calm Calm - 0.00 in   Clear
10:55 PM 44.6 °F - 44.6 °F 100% 30.38 in 9.0 mi Calm Calm - 0.00 in   Clear
11:15 PM 42.8 °F - 42.8 °F 100% 30.38 in 9.0 mi Calm Calm - 0.00 in   Clear
11:35 PM 42.8 °F 41.1 °F 42.8 °F 100% 30.39 in 4.0 mi North 3.5 mph - 0.00 in   Clear
11:55 PM 42.8 °F - 42.8 °F 100% 30.39 in 10.0 mi Calm Calm - 0.00 in   Clear